Flag for Germany Weather past 2 weeks in Rastatt, Baden-Württemberg, Germany

61 °F

Partly sunny.

Feels Like: 61 °F
Forecast: 48 / 61 °F
Wind: 7 mph from Southwest

Location: Karlsruhe - Baden Wurttemberg

Current Time: Oct 7, 2015 at 1:18:12 PM

Latest Report: Oct 7, 2015 at 12:50 PM

Visibility: N/A

Pressure: 29.98 "Hg

Humidity: 72%

Dew point: 52 °F

Location of RastattLocation

Historic Weather in Rastatt — Graph


Rastatt temperature yesterday

Maximum temperature yesterday: 66 °F (at 11:50 AM)
Minimum temperature yesterday: 57 °F (at 7:20 AM)
Average temperature yesterday: 62 °F

Past Weeks' High & Low Weather Summary

High72 °F (Oct 3, 3:50 PM)94% (Sep 23, 12:20 PM)30.51 "Hg (Sep 23, 12:20 PM)
Low43 °F (Oct 1, 6:50 AM)28% (Sep 28, 5:20 PM)29.62 "Hg (Sep 22, 5:50 PM)
Average57 °F67%30.13 "Hg
* Reported Sep 22 11:20 AM — Oct 7 11:50 AM, Rastatt, Weather by CustomWeather, © 2015

Note: Actual official high and low records may vary slightly from our data, if they occured in-between our weather recording intervals... More about our weather records


Rastatt weather history for previous 24 hours

Time TempWeatherWind HumidityBarometerVisibility
11:50 AM
Wed, Oct 7
59 °FScattered clouds.6 mph82%29.95 "HgN/A
11:20 AM59 °FScattered clouds.7 mph77%29.95 "HgN/A
10:50 AM59 °FScattered clouds.5 mph82%29.92 "HgN/A
10:20 AM59 °FBroken clouds.6 mph82%29.92 "HgN/A
9:50 AM59 °FPartly sunny.6 mph82%29.92 "HgN/A
9:20 AM59 °FBroken clouds.6 mph82%29.89 "HgN/A
8:50 AM57 °FBroken clouds.5 mph94%29.89 "HgN/A
8:20 AM57 °FPartly cloudy.3 mph94%29.89 "HgN/A
7:50 AM59 °FPartly cloudy.3 mph88%29.86 "HgN/A
7:20 AM57 °FScattered showers. Partly cloudy.7 mph94%29.86 "Hg4 mi
6:50 AM59 °FLight rain. Partly cloudy.8 mph88%29.86 "Hg4 mi
6:20 AM59 °FPassing clouds.7 mph88%29.83 "HgN/A
5:50 AM59 °FPassing clouds.7 mph88%29.83 "HgN/A
5:20 AM59 °FPassing clouds.8 mph88%29.83 "HgN/A
4:50 AM59 °FPassing clouds.7 mph94%29.83 "HgN/A
11:50 PM
Tue, Oct 6
61 °FPassing clouds.7 mph83%29.77 "HgN/A
11:20 PM61 °FPassing clouds.6 mph83%29.77 "HgN/A
10:50 PM61 °FPassing clouds.6 mph83%29.77 "HgN/A
10:20 PM61 °FPassing clouds.7 mph83%29.74 "HgN/A
9:50 PM59 °FClear.7 mph88%29.74 "Hg10 mi
9:20 PM61 °FClear.6 mph83%29.74 "Hg10 mi
8:50 PM61 °FPassing clouds.7 mph83%29.74 "HgN/A
8:20 PM63 °FPartly cloudy.13 mph77%29.74 "HgN/A
7:50 PM63 °FSunny.9 mph77%29.74 "Hg10 mi
7:20 PM63 °FBroken clouds.8 mph77%29.71 "HgN/A
6:50 PM63 °FBroken clouds.9 mph83%29.71 "HgN/A
6:20 PM63 °FBroken clouds.8 mph83%29.71 "HgN/A
5:50 PM63 °FSunny.8 mph83%29.71 "Hg10 mi
5:20 PM63 °FBroken clouds.10 mph83%29.71 "HgN/A
4:50 PM63 °FLight rain. Broken clouds.8 mph83%29.68 "HgN/A
4:20 PM64 °FLight rain. Broken clouds.10 mph83%29.68 "HgN/A
3:50 PM64 °FLight rain. Broken clouds.12 mph88%29.71 "HgN/A
3:20 PM64 °FLight rain. Broken clouds.13 mph88%29.71 "HgN/A
2:50 PM64 °FLight rain. Broken clouds.13 mph88%29.71 "HgN/A
2:20 PM66 °FRain. Partly sunny.12 mph83%29.71 "Hg6 mi
2:00 PM66 °FLight rain. Partly sunny.13 mph78%29.71 "HgN/A
1:20 PM66 °FBroken clouds.6 mph83%29.71 "HgN/A
Weather by CustomWeather, © 2015

See weather overviewHow to use our weather pages